Location: Brad
(46.1333°N, 22.7833°E)
Time: 10:25:11
(UTC+00:00)

Cosmos 1825 - Pass Details

Date: 03 February 2023
Orbit: 481 x 488 km, 82.5° (Epoch: 20 March)

Event Time Altitude Azimuth Distance (km) Brightness Sun altitude
Rises 16:40:33 0° 176° (S) 2,567 5.8 -11.4°
Reaches altitude 10° 16:42:41 10° 171° (S) 1,691 4.9 -11.8°
Maximum altitude 16:46:17 52° 95° (E) 625 2.2 -12.4°
Drops below altitude 10° 16:49:56 10° 18° (NNE) 1,708 4.6 -13.0°
Sets 16:52:05 0° 14° (NNE) 2,596 5.5 -13.4°
